Regional Weather Roundup
Issued by NWS

Home | Current Version | Previous Version | Text Only | Print | Product List | Glossary Off
Versions: 1 2 3 4 5 6 7 8 9 10 11 12 13 14 15 16 17 18 19 20 21 22 23 24 25 26 27 28 29 30 31 32 33 34 35 36 37 38 39 40 41 42 43 44 45 46 47 48 49 50

000
ASUS45 KTFX 182010
RWRMT
MONTANA REGIONAL WEATHER ROUNDUP
NATIONAL WEATHER SERVICE GREAT FALLS MT
100 PM MST SAT NOV 18 2017

NOTE: "FAIR" INDICATES FEW OR NO CLOUDS BELOW 12000 FEET WITH NO
SIGNIFICANT WEATHER AND/OR OBSTRUCTIONS TO VISIBILITY.

MTZ001>007-043-182100-
WEST OF THE DIVIDE

CITY           SKY/WX    TMP DP  RH WIND       PRES   REMARKS
KALISPELL      CLOUDY    40  25  55 SW13      30.24F
MISSOULA       FAIR      41  23  48 W9        30.29F
BUTTE          FAIR      34  13  41 SW9       30.24F WCI  27
MULLAN PASS    CLOUDY    24  21  88 MISG      30.19F
ANACONDA         N/A     34  16  47 SW18      30.23F WCI  23
DEER LODGE       N/A     37  19  48 S5        30.25F
EUREKA           N/A     43  21  42 MISG      30.24F
HAMILTON         N/A     43  18  36 SE15      30.29F
LIBBY            N/A     41  27  56 CALM      30.24F
RONAN            N/A     40  24  53 SE5       30.29F
$$

MTZ008-052>055-182100-
SOUTHWEST MONTANA

CITY           SKY/WX    TMP DP  RH WIND       PRES   REMARKS
BOZEMAN        FAIR      35  20  54 N6        30.24F WCI  30
DILLON         FAIR      34  11  38 W15       30.27F WCI  24
W YELLOWSTONE  PTSUNNY   21  16  79 SW16G23   30.31S WCI   7
ENNIS          CLOUDY    34  14  44 S17       30.30F WCI  23
$$

MTZ009-010-012-014-046-048-049-054-182100-
EAST SLOPES AND CENTRAL MONTANA

CITY           SKY/WX    TMP DP  RH WIND       PRES   REMARKS
CUT BANK       FAIR      38  22  52 W31G46    30.04F WCI  25
GREAT FALLS    FAIR      42  18  37 SW31G40   30.10F
MALMSTROM AFB  FAIR      42  18  37 W29G41    30.10F
HELENA         PTSUNNY   40  18  41 W13       30.22F
BOWMANS CRNR   FAIR      37  21  52 SW23G30   30.12S WCI  25
CHOTEAU          N/A     41  18  38 W24G32    30.08F
FAIRFIELD      FAIR      40  18  41 W33G43    30.08F
POWER          FAIR      40  17  39 SW28G39   30.08F
RAYNESFORD     FAIR      41  17  37 W28G40    30.09F
ULM            FAIR      42  18  38 W29G37    30.13F
$$

MTZ011-013-016-021-045-047-050-051-182100-
NORTH CENTRAL MONTANA

CITY           SKY/WX    TMP DP  RH WIND       PRES   REMARKS
HAVRE          FAIR      40  26  57 W21       30.07F
LEWISTOWN      FAIR      41  18  39 W14G23    30.08F
N BAR RANCH    FAIR      41  14  33 W12G26    30.10F
CHINOOK          N/A     43  25  49 W17G24    30.06F
DENTON         FAIR      42  19  39 W44       30.06F
GEYSER         FAIR      41  16  37 W36G44    30.08F
GRASS RANGE    FAIR      42  15  33 W28G33    30.05F
STANFORD       FAIR      41  16  36 W20       30.09S
WINIFRED       FAIR      42  16  35 W21G29    30.08F
$$

MTZ017>020-022>027-061-062-182100-
NORTHEAST MONTANA

CITY           SKY/WX    TMP DP  RH WIND       PRES   REMARKS
GLASGOW        FAIR      33  19  56 SW8       30.06F WCI  26
GLENDIVE       FAIR      36  22  56 S7        30.09S WCI  30
JORDAN           N/A     43  22  43 W18       30.08F
SIDNEY         FAIR      32  17  54 SW10      30.09F WCI  24
WOLF POINT     FAIR      33  18  53 W10       30.09F WCI  25
MALTA          SUNNY     37  21  52 W10G17    30.08S WCI  30
PLENTYWOOD       N/A     28  14  54 CALM      30.03F
POPLAR           N/A     28  18  64 SW9       30.09F WCI  20
$$

MTZ028>42-056>058-182100-
SOUTHCENTRAL AND SOUTHEAST MONTANA

CITY           SKY/WX    TMP DP  RH WIND       PRES   REMARKS
BAKER          PTSUNNY   37  24  59 W13       30.07F WCI  29
BILLINGS       FAIR      45  16  31 W28G35    30.13F
LIVINGSTON     FAIR      42  15  33 SW32G40   30.17F
MILES CITY     CLOUDY    43  23  45 W16       30.10F
BIG TIMBER     SUNNY     39  14  35 W47G58    30.11F WCI  25
FORSYTH          N/A     45  19  36 W16G22    30.11F
HARLOWTON      FAIR      37  19  48 W33G45    30.11F WCI  23
LAUREL           N/A     46  14  27 W20G28    30.15F
ROUNDUP          N/A     43  15  32 W23       30.02F
$$

REGIONAL REPORTS...DAKOTAS

CITY           SKY/WX    TMP DP  RH WIND       PRES   REMARKS
WILLISTON      FAIR      31  14  49 W10       30.08F WCI  22
MINOT          FAIR      26  10  50 W15       30.04F WCI  14
DICKINSON      FAIR      31  17  56 W15       30.05S WCI  20
BEACH          FAIR      32  21  64 W17       30.09F WCI  21
CROSBY         FAIR      23  12  63 NW8       30.06F WCI  14
TIOGA          FAIR      25  14  63 W15       30.05F WCI  12
WATFORD CITY   FAIR      28  12  50 W16       30.07F WCI  17
BISMARCK       FAIR      34  16  47 NW12G23   30.10F WCI  25
GRAND FORKS    FAIR      20  10  65 NW17      30.03S WCI   5
FARGO          FAIR      25  11  55 NW21G28   30.03S WCI  11
BUFFALO SD       N/A     43  21  41 NW21      30.01F
RAPID CITY     CLOUDY    45  18  34 N18       30.12F
$$

REGIONAL REPORTS...WYOMING/IDAHO/WASHINGTON

CITY           SKY/WX    TMP DP  RH WIND       PRES   REMARKS
GILLETTE       FAIR      41  13  31 W10G17    30.13F
SHERIDAN       FAIR      44  13  28 CALM      30.14F
BUFFALO WY     FAIR      33  12  41 S10       30.14F WCI  25
CODY           FAIR      39  13  34 W15G24    30.16F WCI  31
IDAHO FALLS    FAIR      35  23  61 SW14      30.41F WCI  26
SALMON         FAIR      37  16  42 E6        30.35F
BOISE          FAIR      46  24  42 SE14      30.37F
SPOKANE        PTSUNNY   39  33  79 VRB6      30.28F
$$

REGIONAL REPORTS...ALBERTA

CITY           SKY/WX    TMP DP  RH WIND       PRES   REMARKS
EDMONTON       PTSUNNY   27  16  63 SW6       29.79F WCI  20
CALGARY        PTSUNNY   37  16  41 W18G29    29.89F WCI  27
LETHBRIDGE     CLOUDY    37  23  56 W31G40    29.99F WCI  25
MEDICINE HAT   PTSUNNY   36  27  69 SW8       29.99F WCI  29
$$

REGIONAL REPORTS...SASKATCHEWAN

CITY           SKY/WX    TMP DP  RH WIND       PRES   REMARKS
SWIFT CURRENT  MOSUNNY   28  19  69 W15       29.96F WCI  17
REGINA         PTSUNNY   14   7  73 W7        30.00F WCI   4
SASKATOON      PTSUNNY   12   5  73 SW13      29.97F WCI  -3
$$



USA.gov is the U.S. government's official web portal to all federal, state and local government web resources and services.